Regional Weather Roundup
Issued by NWS Midland/Odessa, TX

Skip options and go directly to product.
Home | Oldest Version | Previous Version | Current Version | All | Graphics & Text | Save Text | Print | Product List | Glossary On

Skip product version selection by date and time.   
853
ASUS44 KMAF 050210
RWRMAF
MIDLAND AREA WEATHER ROUNDUP
NATIONAL WEATHER SERVICE MIDLAND TX
800 PM CST WED MAR 04 2015

...IN SOUTHWEST TEXAS AND SOUTHEAST NEW MEXICO...

CITY           SKY/WX    TMP DP  RH WIND       PRES   REMARKS
ALPINE         CLOUDY    37  36  97 N26G32    30.18R WCI  25
ANDREWS        CLOUDY    25  21  86 NE18      30.25R WCI  11
ARTESIA        CLOUDY    30  27  86 N10       30.25R WCI  21
BIG SPRING     CLOUDY    26  22  84 N22G28    30.26R WCI  12
CARLSBAD       CLOUDY    32  26  78 N15       30.23R WCI  22
DRYDEN           N/A     41  37  86 N23G35    30.05R WCI  31
FORT STOCKTON  MIX PCPN  32  31  96 N22G28    30.19R WCI  19
GUAD PASS      NOT AVBL
HOBBS          CLOUDY    25  25 100 NE21      30.23R WCI  10
MARFA          MOCLDY    41  36  81 N24       30.10R WCI  31
MIDLAND AIRPK  CLOUDY    28  24  86 N16G22    30.24R WCI  15
MIDLAND INTL   CLOUDY    26  22  84 NE26G36   30.22R WCI  10
ODESSA         MIX PCPN  26  21  81 NE25G32   30.24R WCI  11
PECOS          LGT SNOW  32  30  93 N15       30.26R WCI  21
PRESIDIO       CLOUDY    63  40  43 NW14      29.98R
SEMINOLE       CLOUDY    24  20  82 NE18G28   30.24R WCI  11
SNYDER         LGT SNOW  22  20  89 NE17G26   30.25S WCI   8
WINK           MIX PCPN  30  23  75 NE22G32   30.23R WCI  17
$$
...OTHER STATIONS IN TEXAS...

CITY           SKY/WX    TMP DP  RH WIND       PRES   REMARKS
ABILENE        LGT SNOW  26  23  88 N16       30.24R FOG     WCI  14
AMARILLO       CLOUDY    21  17  84 N12       30.28R WCI   9
AUSTIN         LGT RAIN  39  39 100 N24G31    30.04R FOG     WCI  28
BROWNSVILLE    CLOUDY    73  70  90 SE9       29.78R
CORPUS CHRISTI CLOUDY    70  67  90 SE10      29.81R
DALLAS FTW     FRZ RAIN  30  27  88 N24G38    30.14R FOG     WCI  16
DEL RIO        CLOUDY    43  36  76 N15G26    30.04R WCI  36
EL PASO        MOCLDY    55  31  39 N7        30.02R
HOUSTON INT    CLOUDY    73  67  81 CALM      29.85R
LUBBOCK        LGT SNOW  22  18  85 NE16      30.26R FOG     WCI   8
SAN ANGELO     FRZ RAIN  31  27  85 NE13G24   30.21R WCI  21
SAN ANTONIO    CLOUDY    45  40  82 N23G33    29.96R WCI  36
WACO           CLOUDY    33  30  88 N25G35    30.10R WCI  20
WICHITA FALLS  NOT AVBL
$$
...OTHER LOCATIONS IN NEW MEXICO...

CITY           SKY/WX    TMP DP  RH WIND       PRES   REMARKS
ALAMAGORDO     PTCLDY    48  34  57 W5        30.04R
ALBUQUERQUE    PTCLDY    44  14  29 N16       30.06R WCI  37
CANNON AFB     CLOUDY    21  17  86 NE16      30.23R WCI   7
CLOVIS         CLOUDY    21  16  79 NE18      30.24R WCI   6
HOLLOMAN AFB   PTCLDY    50  36  59 S1        30.02R
ROSWELL        CLOUDY    29  24  82 NE8       30.24R WCI  21
RUIDOSO        FOG       21  19  93 SE12      30.12R VSB 1/4 WCI   9
SANTA FE       PTCLDY    25  18  74 SE16G23   30.06R WCI  12
TRUTH OR CONSE CLEAR     45  31  58 W7        30.03R
TUCUMCARI      CLOUDY    23  17  78 NE13      30.27R WCI  11
$$

USA.gov is the U.S. government's official web portal to all federal, state and local government web resources and services.